Willimantic, CT

3:56 AM EDT on August 26, 2019 (GMT -0400)
Windham

Weather History for KIJD - June, 2019

Change the Weather History Date:

Wednesday, June 5, 2019

  Actual Average Record
Temperature  
Mean Temperature 69 °F -  
Max Temperature 78 °F 74 °F 89 °F (2005)
Min Temperature 61 °F 49 °F 36 °F (1958)
Cooling Degree Days 4    
Growing Degree Days 19 (Base 50)    
Moisture  
Dew Point 57 °F    
Average Humidity 66    
Maximum Humidity 90    
Minimum Humidity 52    
Precipitation  
Precipitation 0.00 in - - ()
Sea Level Pressure  
Sea Level Pressure 29.84 in    
Wind  
Wind Speed 6 mph ()    
Max Wind Speed 13 mph    
Max Gust Speed -    
Visibility 9.7 miles    
Events Rain    
Averages and records for this station are not official NWS values.
T = Trace of Precipitation, MM = Missing Value Source: Averaged Metar Reports

Daily Weather History Graph

Daily Weather History Graph

Search for Another Location

Airport or City:

Astronomy

Jun. 05, 2019 Rise Set
Actual Time 5:15 AM EDT 8:19 PM EDT
Civil Twilight 4:41 AM EDT 8:53 PM EDT
Nautical Twilight 3:58 AM EDT 9:36 PM EDT
Astronomical Twilight 3:07 AM EDT 10:27 PM EDT
Moon 7:17 AM EDT (6/5) 10:43 PM EDT (6/5)
Length of Visible Light 16h 12m
Length of Day
15h 04m
Waxing Crescent, 6% of the Moon is Illuminated
Jun 5
Waxing Crescent
Jun 10
First Quarter
Jun 17
Full
Jun 25
Last Quarter
Jul 2
New

Hourly Weather History & Observations

Time (EDT) Temp. Dew Point Humidity Pressure Visibility Wind Dir Wind Speed Gust Speed Precip Events Conditions
12:52 AM 61.0 °F 48.0 °F 62% 29.96 in 10.0 mi SSW 4.6 mph - N/A   Overcast
1:52 AM 62.1 °F 46.9 °F 58% 29.95 in 10.0 mi South 4.6 mph - N/A   Overcast
2:52 AM 62.1 °F 46.9 °F 58% 29.94 in 10.0 mi South 6.9 mph - N/A   Overcast
3:52 AM 62.1 °F 46.9 °F 58% 29.92 in 10.0 mi SSW 5.8 mph - N/A   Overcast
4:52 AM 62.1 °F 46.0 °F 56% 29.91 in 10.0 mi SSW 5.8 mph - N/A   Clear
5:52 AM 61.0 °F 48.0 °F 62% 29.91 in 10.0 mi SSW 5.8 mph - N/A   Scattered Clouds
6:52 AM 63.0 °F 51.1 °F 65% 29.92 in 10.0 mi SW 5.8 mph - N/A   Overcast
7:52 AM 64.0 °F 52.0 °F 65% 29.92 in 10.0 mi SW 6.9 mph - N/A   Overcast
8:52 AM 64.9 °F 53.1 °F 65% 29.93 in 10.0 mi Variable 5.8 mph - N/A   Overcast
9:52 AM 69.1 °F 55.0 °F 61% 29.90 in 10.0 mi SSW 8.1 mph - 0.00 in   Scattered Clouds
10:52 AM 72.0 °F 54.0 °F 53% 29.88 in 10.0 mi SSW 8.1 mph - N/A   Clear
11:52 AM 73.9 °F 55.0 °F 52% 29.86 in 10.0 mi South 10.4 mph - N/A   Clear
12:52 PM 75.9 °F 57.9 °F 54% 29.85 in 10.0 mi South 8.1 mph - N/A   Clear
1:52 PM 77.0 °F 59.0 °F 54% 29.82 in 10.0 mi SSW 12.7 mph - N/A   Clear
2:52 PM 75.9 °F 60.1 °F 58% 29.82 in 10.0 mi South 10.4 mph - N/A   Clear
3:52 PM 75.9 °F 60.1 °F 58% 29.81 in 10.0 mi South 12.7 mph - N/A   Clear
4:52 PM 73.9 °F 57.9 °F 57% 29.80 in 10.0 mi SSW 10.4 mph - N/A   Mostly Cloudy
5:52 PM 73.0 °F 61.0 °F 66% 29.79 in 10.0 mi South 5.8 mph - N/A   Partly Cloudy
6:52 PM 73.0 °F 61.0 °F 66% 29.78 in 10.0 mi South 9.2 mph - N/A   Clear
7:52 PM 71.1 °F 62.1 °F 73% 29.77 in 10.0 mi SSE 3.5 mph - N/A   Clear
8:52 PM 70.0 °F 64.0 °F 81% 29.76 in 10.0 mi South 8.1 mph - N/A   Mostly Cloudy
9:15 PM 70.0 °F 64.0 °F 81% 29.76 in 9.0 mi South 10.4 mph - N/A   Overcast
9:52 PM 69.1 °F 64.9 °F 87% 29.75 in 9.0 mi South 8.1 mph - N/A   Overcast
10:52 PM 69.1 °F 64.9 °F 87% 29.75 in 8.0 mi South 6.9 mph - 0.00 in   Overcast
11:41 PM 68.0 °F 64.9 °F 90% 29.74 in 7.0 mi South 10.4 mph - 0.00 in   Overcast
11:52 PM 68.0 °F 64.9 °F 90% 29.73 in 8.0 mi South 10.4 mph - 0.00 in Rain Light Rain